Terminal Aerodrome Forecast
Issued by NWS Springfield, MO

Home | Current Version | Previous Version | Text Only | Print | Product List | Glossary On
Versions: 1 2 3 4 5 6 7 8 9 10 11 12 13 14 15
000
FTUS43 KSGF 171700
TAFSGF
TAF
KSGF 171720Z 1718/1818 VRB05KT P6SM SCT150 BKN200
     FM181100 12005KT 5SM BR SKC
     FM181400 09005KT P6SM SKC=

USA.gov is the U.S. government's official web portal to all federal, state and local government web resources and services.